Flag for U.S.A. Weather past 2 weeks in Vista, California, U.S.A.

Now
77 °F

Sunny.


Feels Like: 78 °F
Forecast: 59 / 73 °F
Wind: No wind

Location: McClellan-Palomar Airport

Current Time: Oct 24, 2014 at 6:45:16 PM

Latest Report: Oct 24, 2014 at 5:53 PM


Visibility: 10 mi

Pressure: 29.92 "Hg

Humidity: 36%

Dew point: 48 °F

Location of VistaLocation

Historic Weather in Vista — Graph

°F

Vista temperature yesterday

Maximum temperature yesterday: 76 °F (at 2:53 PM)
Minimum temperature yesterday: 58 °F (at 5:53 AM)
Average temperature yesterday: 67 °F

Past Weeks' High & Low Weather Summary

 TemperatureHumidityPressure
High81 °F (Oct 24, 12:53 PM)97% (Oct 23, 12:53 AM)30.02 "Hg (Oct 23, 12:53 AM)
Low58 °F (Oct 23, 5:53 AM)31% (Oct 24, 2:53 PM)29.82 "Hg (Oct 21, 4:53 PM)
Average68 °F74%29.92 "Hg
* Reported Oct 9 5:53 PM — Oct 24 5:53 PM, Vista, Weather by CustomWeather, © 2014

Note: Actual official high and low records may vary slightly from our data, if they occured in-between our weather recording intervals... More about our weather records

Advertising

Vista weather history for previous 24 hours

 ConditionsComfort  
Time TempWeatherWind HumidityBarometerVisibility
5:53 PM
Oct 24
77 °FSunny.No wind36%29.92 "Hg10 mi
4:53 PM78 °FSunny.No wind45%29.92 "Hg10 mi
3:53 PM79 °FSunny.3 mph35%29.92 "Hg10 mi
2:53 PM80 °FSunny.7 mph31%29.92 "Hg10 mi
1:53 PM79 °FSunny.7 mph35%29.92 "Hg10 mi
12:53 PM81 °FSunny.7 mph33%29.94 "Hg10 mi
11:53 AM79 °FSunny.7 mph34%29.97 "Hg10 mi
10:53 AM79 °FSunny.3 mph36%29.98 "Hg10 mi
9:53 AM76 °FSunny.No wind35%29.98 "Hg10 mi
8:53 AM73 °FSunny.No wind36%29.98 "Hg10 mi
7:53 AM65 °FClear.No wind47%29.96 "Hg10 mi
6:53 AM61 °FClear.No wind54%29.95 "Hg10 mi
5:53 AM61 °FClear.No wind58%29.94 "Hg10 mi
4:53 AM61 °FClear.No wind58%29.94 "Hg10 mi
3:53 AM60 °FClear.No wind60%29.93 "Hg10 mi
1:53 AM62 °FClear.No wind62%29.94 "Hg10 mi
12:53 AM64 °FClear.No wind58%29.94 "Hg10 mi
11:53 PM
Oct 23
64 °FClear.No wind63%29.94 "Hg10 mi
10:53 PM66 °FClear.No wind63%29.94 "Hg10 mi
9:53 PM66 °FClear.No wind70%29.93 "Hg10 mi
8:53 PM67 °FClear.No wind76%29.92 "Hg9 mi
7:53 PM67 °FClear.No wind85%29.92 "Hg7 mi
6:53 PM70 °FSunny.No wind79%29.92 "Hg7 mi
Weather by CustomWeather, © 2014

See weather overviewHow to use our weather pages